GW3201 Weather Reports


time (UTC)temp
C
wind
direction
speed
KPH
gust
KPH
rain 1hr
cm
rain 24hr
cm
rain mn
cm
humidity
%
barometer
mb
20260503175502 13 239 6.4 19.3 0.00 0.03 0.00 74 1012.8
20260503175003 13 242 6.4 19.3 0.00 0.03 0.00 75 1012.9
20260503174514 13 249 9.7 19.3 0.00 0.03 0.00 76 1012.9
20260503174004 13 244 9.7 30.6 0.00 0.03 0.00 75 1012.9
20260503173504 13 180 8.0 30.6 0.00 0.03 0.00 76 1012.8
20260503173015 13 262 9.7 24.1 0.00 0.03 0.00 75 1012.7
20260503172506 13 252 4.8 24.1 0.00 0.03 0.00 76 1012.7
20260503172006 13 223 11.3 24.1 0.00 0.03 0.00 75 1012.7
20260503171517 13 252 6.4 22.5 0.00 0.03 0.00 75 1012.6
20260503171004 13 244 3.2 19.3 0.00 0.03 0.00 75 1012.5
20260503170504 13 242 8.0 20.9 0.00 0.03 0.00 74 1012.4
20260503151005 12 234 8.0 19.3 0.00 0.03 0.00 78 1011.9
20260503150509 12 259 6.4 17.7 0.00 0.03 0.00 78 1011.9
20260503131008 11 267 4.8 16.1 0.00 0.03 0.00 81 1010.4
20260503130506 11 243 3.2 19.3 0.00 0.03 0.00 81 1010.4
20260503110507 11 156 3.2 12.9 0.00 0.03 0.00 83 1010.4
20260503090507 8 231 0.0 3.2 0.00 0.03 0.00 89 1010.6
20260503081537 9 233 1.6 3.2 0.00 0.03 0.00 88 1010.9
20260503081004 9 153 0.0 3.2 0.00 0.03 0.00 88 1011.0
20260503080504 9 153 1.6 3.2 0.00 0.03 0.00 87 1011.0
20260503072512 10 141 0.0 4.8 0.00 0.03 0.00 86 1011.3
20260503072010 10 262 0.0 1.6 0.00 0.03 0.00 87 1011.2
20260503071528 10 262 0.0 0.0 0.00 0.03 0.00 86 1011.3
20260503071008 10 262 0.0 4.8 0.00 0.03 0.00 86 1011.2
20260503070508 10 262 0.0 4.8 0.00 0.03 0.00 86 1011.2
20260503055009 11 153 0.0 16.1 0.00 0.03 0.03 83 1011.5
20260503054531 11 169 6.4 16.1 0.00 0.03 0.03 83 1011.6
20260503054007 11 242 4.8 11.3 0.00 0.03 0.03 83 1011.6
20260503053507 11 245 4.8 14.5 0.00 0.03 0.03 83 1011.7
20260503053003 11 272 4.8 14.5 0.00 0.03 0.03 83 1011.6
20260503052502 11 233 3.2 19.3 0.00 0.03 0.03 83 1011.6
20260503052004 11 239 6.4 19.3 0.00 0.03 0.03 83 1011.6
20260503051505 11 254 6.4 19.3 0.00 0.03 0.03 82 1011.7
20260503051003 11 326 8.0 17.7 0.00 0.03 0.03 82 1011.8
20260503050503 11 256 6.4 17.7 0.00 0.03 0.03 82 1011.8
20260503050005 11 255 8.0 17.7 0.00 0.03 0.03 82 1011.8
20260503045506 11 215 4.8 17.7 0.00 0.03 0.03 82 1011.8
20260503045005 11 217 6.4 17.7 0.00 0.03 0.03 82 1011.8
20260503044508 11 263 6.4 17.7 0.00 0.03 0.03 82 1011.7
20260503044006 11 249 4.8 16.1 0.00 0.03 0.03 82 1011.8
20260503043507 11 316 4.8 16.1 0.00 0.03 0.03 82 1011.7
20260503043015 11 240 8.0 19.3 0.00 0.03 0.03 82 1011.7
20260503042508 11 272 8.0 19.3 0.00 0.03 0.03 82 1011.5
20260503042008 11 287 8.0 17.7 0.00 0.03 0.03 82 1011.5
20260503041504 11 295 4.8 12.9 0.00 0.03 0.03 82 1011.4
20260503041002 11 300 4.8 16.1 0.00 0.03 0.03 82 1011.5
20260503040503 11 266 6.4 19.3 0.00 0.03 0.03 81 1011.4
20260503040004 11 281 8.0 19.3 0.00 0.03 0.03 81 1011.4
20260503035504 11 270 6.4 16.1 0.00 0.03 0.03 81 1011.3
20260503035005 11 257 6.4 16.1 0.00 0.03 0.03 81 1011.2
20260503034509 11 286 4.8 12.9 0.00 0.03 0.03 81 1011.2
20260503034003 11 265 4.8 19.3 0.00 0.03 0.03 81 1011.2
20260503033507 11 285 11.3 19.3 0.00 0.03 0.03 81 1011.1
20260503033024 11 250 6.4 19.3 0.00 0.03 0.03 80 1011.0
20260503032503 11 304 6.4 19.3 0.00 0.03 0.03 80 1010.9
20260503032005 11 278 6.4 14.5 0.00 0.03 0.03 80 1011.0
20260503031517 12 306 8.0 14.5 0.00 0.03 0.03 79 1011.0
20260503031008 12 285 4.8 11.3 0.00 0.03 0.03 79 1010.9
20260503030507 12 289 4.8 14.5 0.00 0.03 0.03 79 1010.8
20260503030042 12 290 4.8 14.5 0.00 0.03 0.03 79 1010.8
20260503025502 12 291 6.4 12.9 0.00 0.03 0.03 78 1010.7
20260503025002 12 297 4.8 12.9 0.00 0.03 0.03 78 1010.7
20260503024506 12 294 6.4 14.5 0.00 0.03 0.03 77 1010.8
20260503024002 12 293 8.0 14.5 0.00 0.03 0.03 77 1010.7
20260503023503 12 356 4.8 16.1 0.00 0.03 0.03 76 1010.5
20260503023005 12 285 4.8 17.7 0.00 0.03 0.03 76 1010.5
20260503022502 13 322 6.4 17.7 0.00 0.03 0.03 75 1010.4
20260503022008 13 279 4.8 17.7 0.00 0.03 0.03 75 1010.4
20260503021513 13 264 6.4 17.7 0.00 0.03 0.03 74 1010.5
20260503021005 13 280 6.4 16.1 0.00 0.03 0.03 74 1010.4
20260503020507 13 286 6.4 19.3 0.00 0.03 0.03 73 1010.5
20260503020016 13 293 6.4 19.3 0.00 0.03 0.03 73 1010.4
20260503015507 14 297 8.0 19.3 0.00 0.03 0.03 72 1010.4
20260503015009 14 290 6.4 20.9 0.00 0.03 0.03 71 1010.5
20260503014520 14 272 6.4 20.9 0.00 0.03 0.03 71 1010.4
20260503014009 15 278 4.8 17.7 0.00 0.03 0.03 70 1010.4
20260503013506 15 242 3.2 17.7 0.00 0.03 0.03 71 1010.4
20260503013007 15 287 8.0 16.1 0.00 0.03 0.03 70 1010.4
20260503012503 15 238 6.4 16.1 0.00 0.03 0.03 70 1010.4
20260503012003 15 344 6.4 17.7 0.00 0.03 0.03 69 1010.4
20260503011508 15 255 4.8 17.7 0.00 0.03 0.03 69 1010.4
20260503011002 16 290 3.2 14.5 0.00 0.03 0.03 68 1010.4
20260503010505 16 233 4.8 19.3 0.00 0.03 0.03 68 1010.6
20260503010019 16 290 8.0 19.3 0.00 0.03 0.03 68 1010.6
20260503005507 16 298 4.8 17.7 0.00 0.03 0.03 67 1010.6
20260503005007 16 289 3.2 16.1 0.00 0.03 0.03 67 1010.6
20260503004543 16 297 4.8 16.1 0.00 0.03 0.03 67 1010.6
20260503004006 16 238 6.4 17.7 0.00 0.03 0.03 65 1010.6
20260503003506 16 290 6.4 17.7 0.00 0.03 0.03 65 1010.6
20260503003024 17 249 1.6 12.9 0.00 0.03 0.03 65 1010.5
20260503002507 17 31 6.4 16.1 0.00 0.03 0.03 65 1010.6
20260503002010 16 284 4.8 24.1 0.00 0.03 0.03 65 1010.4
20260503001526 17 224 6.4 27.4 0.00 0.03 0.03 65 1010.4
20260503001004 17 274 11.3 27.4 0.00 0.03 0.03 64 1010.4
20260503000503 17 286 6.4 24.1 0.00 0.03 0.03 65 1010.4
20260503000022 17 287 8.0 24.1 0.00 0.03 0.03 64 1010.5
20260502235502 17 252 6.4 19.3 0.00 0.03 0.03 65 1010.6
20260502235005 17 281 8.0 20.9 0.00 0.03 0.03 65 1010.6
20260502234515 16 287 8.0 20.9 0.00 0.03 0.03 65 1010.6
20260502234007 17 280 9.7 25.7 0.00 0.03 0.03 64 1010.6
20260502233507 17 232 9.7 25.7 0.00 0.03 0.03 64 1010.5
20260502233020 17 322 11.3 25.7 0.00 0.03 0.03 63 1010.6
20260502232507 17 285 12.9 25.7 0.00 0.03 0.03 63 1010.7
20260502232006 17 270 9.7 22.5 0.00 0.03 0.03 63 1010.8
20260502231524 17 220 11.3 22.5 0.00 0.03 0.03 62 1010.7
20260502231008 17 311 6.4 27.4 0.00 0.03 0.03 61 1010.8
20260502230507 17 284 8.0 27.4 0.00 0.03 0.03 63 1010.8
20260502230028 17 239 11.3 29.0 0.00 0.03 0.03 63 1010.8
20260502225512 17 245 11.3 29.0 0.00 0.03 0.03 63 1010.8
20260502225004 17 266 9.7 40.2 0.00 0.03 0.03 63 1010.9
20260502224512 17 287 16.1 40.2 0.00 0.03 0.03 62 1011.1
20260502224007 17 257 12.9 37.0 0.00 0.03 0.03 63 1011.2
20260502223506 17 233 17.7 41.8 0.00 0.03 0.03 63 1011.2
20260502223016 17 257 16.1 41.8 0.00 0.03 0.03 63 1011.2
20260502222507 17 247 16.1 37.0 0.00 0.03 0.03 63 1011.2
20260502222006 17 230 19.3 37.0 0.00 0.03 0.03 63 1011.3
20260502221524 17 281 16.1 43.5 0.00 0.03 0.03 63 1011.5
20260502221006 17 252 22.5 43.5 0.00 0.03 0.03 63 1011.4
20260502220507 17 262 14.5 35.4 0.00 0.03 0.03 64 1011.4
20260502220025 17 233 17.7 43.5 0.03 0.03 0.03 64 1011.6
20260502215509 17 252 20.9 43.5 0.03 0.03 0.03 64 1011.6
20260502215007 17 288 19.3 38.6 0.03 0.03 0.03 64 1011.6
20260502214526 17 277 17.7 40.2 0.03 0.03 0.03 64 1011.6
20260502214010 17 230 17.7 40.2 0.03 0.03 0.03 64 1011.6
20260502213511 17 266 12.9 37.0 0.03 0.03 0.03 65 1011.5
20260502213033 17 230 17.7 41.8 0.03 0.03 0.03 65 1011.6
20260502212507 17 242 22.5 43.5 0.03 0.03 0.03 65 1011.6
20260502212008 17 222 17.7 43.5 0.03 0.03 0.03 65 1011.7
20260502211525 17 158 17.7 35.4 0.03 0.03 0.03 66 1011.7
20260502211007 17 260 17.7 35.4 0.03 0.03 0.03 66 1011.8
20260502210506 17 251 12.9 30.6 0.03 0.03 0.03 67 1011.9
20260502210023 16 226 14.5 30.6 0.00 0.00 0.00 67 1012.0
20260502205507 16 259 19.3 43.5 0.00 0.00 0.00 68 1012.1
20260502205007 16 239 16.1 43.5 0.00 0.00 0.00 69 1012.3
20260502204525 16 255 16.1 35.4 0.00 0.00 0.00 69 1012.3
20260502204009 16 158 14.5 33.8 0.00 0.00 0.00 68 1012.3
20260502203506 16 260 11.3 32.2 0.00 0.00 0.00 70 1012.3
20260502203031 16 248 19.3 32.2 0.00 0.00 0.00 69 1012.5
20260502202510 16 262 16.1 32.2 0.00 0.00 0.00 71 1012.4
20260502202011 15 247 16.1 35.4 0.00 0.00 0.00 72 1012.4
20260502201532 15 273 19.3 35.4 0.00 0.00 0.00 72 1012.6
20260502201006 15 293 16.1 30.6 0.00 0.00 0.00 72 1012.6
20260502200508 15 247 14.5 37.0 0.00 0.00 0.00 72 1012.5
20260502200022 15 213 22.5 37.0 0.00 0.00 0.00 72 1012.5
20260502195508 15 241 19.3 37.0 0.00 0.00 0.00 72 1012.5
20260502195004 15 197 12.9 37.0 0.00 0.00 0.00 73 1012.5
20260502194504 15 175 17.7 37.0 0.00 0.00 0.00 73 1012.5
20260502194007 15 214 16.1 41.8 0.00 0.00 0.00 72 1012.5
20260502193504 15 229 17.7 41.8 0.00 0.00 0.00 72 1012.5
20260502193006 15 266 17.7 33.8 0.00 0.00 0.00 72 1012.6
20260502192503 15 215 14.5 33.8 0.00 0.00 0.00 72 1012.7
20260502192003 15 255 17.7 33.8 0.00 0.00 0.00 72 1012.6
20260502191512 15 270 16.1 32.2 0.00 0.00 0.00 71 1012.7
20260502191004 15 265 16.1 32.2 0.00 0.00 0.00 71 1012.6
20260502190508 15 239 17.7 43.5 0.00 0.00 0.00 72 1012.7
20260502190023 15 228 9.7 43.5 0.00 0.00 0.00 72 1012.7
20260502185507 15 248 17.7 37.0 0.00 0.00 0.00 72 1012.6
20260502185008 16 252 16.1 35.4 0.00 0.00 0.00 71 1012.7
20260502184525 15 233 17.7 35.4 0.00 0.00 0.00 72 1012.7
20260502184008 15 238 8.0 27.4 0.00 0.00 0.00 73 1012.6
20260502183508 15 276 16.1 24.1 0.00 0.00 0.00 73 1012.7
20260502183005 15 240 11.3 27.4 0.00 0.00 0.00 72 1012.6
20260502182504 15 242 12.9 27.4 0.00 0.00 0.00 72 1012.7
20260502182003 16 249 12.9 24.1 0.00 0.00 0.00 71 1012.7
20260502181512 16 299 8.0 27.4 0.00 0.00 0.00 70 1012.7
20260502181004 16 302 11.3 27.4 0.00 0.00 0.00 69 1012.8
20260502180503 16 240 11.3 25.7 0.00 0.00 0.00 68 1012.7